Location: Centerville
(32.8776°N, 96.6203°W)
Time: 00:41:11
(UTC+00:00)

Meteor 2-20 Rocket - Pass Details

Date: 17 June 2021
Orbit: 940 x 959 km, 82.5° (Epoch: 01 August)

Event Time Altitude Azimuth Distance (km) Brightness Sun altitude
Exits shadow 03:27:20 18° 185° (S) 2,161 5.9 -19.2°
Maximum altitude 03:32:05 90° 260° (W) 955 4.4 -19.9°
Drops below altitude 10° 03:38:13 10° 6° (N) 2,674 7.3 -20.8°
Sets 03:40:42 0° 7° (N) 3,619 8.1 -21.1°
